(°C)
14°
14°
14°
15°
17°
18°
20°
(°C)
13°
12°
13°
14°
16°
17°
19°
OSO
O
O
ONO
ONO
NO
NNO
(km/h)
7-12
7-11
7-9
7-8
7-9
8-15
7-17
(mm)
0
0
0
0
0
0
0
(%)
0
0
0
0
0
0
0

Élévation du soleil

/ -12.8°
sun-icon
UV 5
04:31
20:27
Pleine lune (187°)
21:14
04:11

METAR pour 51.82°N 39.23°E (UUOO)

Heure Conditions Température/
Point de rosée
Vent Visibilité Météo Nuages Pression Changement Brut
VFR 14°C / 11°C 250º 4kt >10km - Clouds and Visibility OK 1010 No Significant change. Runway 30: Clear and dry, 1-10% contamination with <1mm, friction coefficient 0.70. UUOO 232330Z 25002MPS CAVOK 14/11 Q1010 R30/010070 NOSIG RMK QFE744
VFR 14°C / 11°C 280º 6kt >10km - Clouds and Visibility OK 1010 No Significant change. Runway 30: Clear and dry, 1-10% contamination with <1mm, friction coefficient 0.70. UUOO 232300Z 28003MPS CAVOK 14/11 Q1010 R30/010070 NOSIG RMK QFE744
VFR 14°C / 11°C 280º 6kt >10km - Clouds and Visibility OK 1010 No Significant change. Runway 30: Clear and dry, 1-10% contamination with <1mm, friction coefficient 0.70. UUOO 232230Z 28003MPS CAVOK 14/11 Q1010 R30/010070 NOSIG RMK QFE744
VFR 16°C / 11°C 270º 4kt >10km - Clouds and Visibility OK 1010 No Significant change. Runway 30: Clear and dry, 1-10% contamination with <1mm, friction coefficient 0.70. UUOO 232200Z 27002MPS CAVOK 16/11 Q1010 R30/010070 NOSIG RMK QFE744
VFR 15°C / 11°C 280º 4kt >10km - Clouds and Visibility OK 1010 No Significant change. Runway 30: Clear and dry, 1-10% contamination with <1mm, friction coefficient 0.70. UUOO 232130Z 28002MPS CAVOK 15/11 Q1010 R30/010070 NOSIG RMK QFE744
VFR 14°C / 11°C 270º 4kt >10km - Clouds and Visibility OK 1010 No Significant change. Runway 30: Clear and dry, 1-10% contamination with <1mm, friction coefficient 0.70. UUOO 232100Z 27002MPS CAVOK 14/11 Q1010 R30/010070 NOSIG RMK QFE744
VFR 16°C / 10°C 260º 4kt >10km - Clouds and Visibility OK 1010 No Significant change. Runway 30: Clear and dry, 1-10% contamination with <1mm, friction coefficient 0.70. UUOO 232030Z 26002MPS CAVOK 16/10 Q1010 R30/010070 NOSIG RMK QFE744
VFR 17°C / 10°C 300º 6kt >10km - Clouds and Visibility OK 1010 No Significant change. Runway 30: Clear and dry, 1-10% contamination with <1mm, friction coefficient 0.70. UUOO 232000Z 30003MPS CAVOK 17/10 Q1010 R30/010070 NOSIG RMK QFE744
VFR 18°C / 10°C 280º 6kt >10km - Clouds and Visibility OK 1010 No Significant change. Runway 30: Clear and dry, 1-10% contamination with <1mm, friction coefficient 0.70. UUOO 231930Z 28003MPS CAVOK 18/10 Q1010 R30/010070 NOSIG RMK QFE744
VFR 19°C / 10°C 280º 4kt >10km - Clouds and Visibility OK 1009 No Significant change. Runway 30: Clear and dry, 1-10% contamination with <1mm, friction coefficient 0.70. UUOO 231900Z 28002MPS CAVOK 19/10 Q1009 R30/010070 NOSIG RMK QFE743
VFR 19°C / 9°C 270º 4kt >10km - Clouds and Visibility OK 1009 No Significant change. Runway 30: Clear and dry, 1-10% contamination with <1mm, friction coefficient 0.70. UUOO 231830Z 27002MPS CAVOK 19/09 Q1009 R30/010070 NOSIG RMK QFE743
VFR 19°C / 10°C 280º 4kt >10km - Clouds and Visibility OK 1009 No Significant change. Runway 30: Clear and dry, 1-10% contamination with <1mm, friction coefficient 0.70. UUOO 231800Z 28002MPS CAVOK 19/10 Q1009 R30/010070 NOSIG RMK QFE743
VFR 20°C / 9°C 260º 4kt >10km - Clouds and Visibility OK 1009 No Significant change. Runway 30: Clear and dry, 1-10% contamination with <1mm, friction coefficient 0.70. UUOO 231730Z 26002MPS CAVOK 20/09 Q1009 R30/010070 NOSIG RMK QFE743
VFR 22°C / 9°C 300º 6kt >10km - Clouds and Visibility OK 1009 No Significant change. Runway 30: Clear and dry, 1-10% contamination with <1mm, friction coefficient 0.70. UUOO 231700Z 30003MPS CAVOK 22/09 Q1009 R30/010070 NOSIG RMK QFE743
VFR 23°C / 8°C 280º 8kt >10km - Clouds and Visibility OK 1009 No Significant change. Runway 30: Clear and dry, 1-10% contamination with <1mm, friction coefficient 0.70. UUOO 231630Z 28004MPS CAVOK 23/08 Q1009 R30/010070 NOSIG RMK QFE743
VFR 24°C / 8°C 310º 8kt >10km - Clouds and Visibility OK 1008 No Significant change. Runway 30: Clear and dry, 1-10% contamination with <1mm, friction coefficient 0.70. UUOO 231600Z 31004MPS CAVOK 24/08 Q1008 R30/010070 NOSIG RMK QFE743
VFR 24°C / 8°C 300º 10kt >10km - Clouds and Visibility OK 1008 No Significant change. Runway 30: Clear and dry, 1-10% contamination with <1mm, friction coefficient 0.70. UUOO 231530Z 30005MPS CAVOK 24/08 Q1008 R30/010070 NOSIG RMK QFE743
VFR 24°C / 7°C 310º 10kt >10km - Clouds and Visibility OK 1008 No Significant change. Runway 30: Clear and dry, 1-10% contamination with <1mm, friction coefficient 0.70. UUOO 231500Z 31005MPS CAVOK 24/07 Q1008 R30/010070 NOSIG RMK QFE743
VFR 24°C / 7°C 310º 12kt >10km - Clouds and Visibility OK 1008 No Significant change. Runway 30: Clear and dry, 1-10% contamination with <1mm, friction coefficient 0.70. UUOO 231430Z 31006MPS CAVOK 24/07 Q1008 R30/010070 NOSIG RMK QFE743
VFR 25°C / 7°C 300º 12kt >10km - Clouds and Visibility OK 1008 No Significant change. Runway 30: Clear and dry, 1-10% contamination with <1mm, friction coefficient 0.70. UUOO 231400Z 30006MPS CAVOK 25/07 Q1008 R30/010070 NOSIG RMK QFE743
VFR 25°C / 7°C 300º variable 260º to 340º 10kt >10km - Clouds and Visibility OK 1008 No Significant change. Runway 30: Clear and dry, 1-10% contamination with <1mm, friction coefficient 0.70. UUOO 231330Z 30005MPS 260V340 CAVOK 25/07 Q1008 R30/010070 NOSIG RMK QFE743
VFR 25°C / 7°C 280º 10kt >10km - Clouds and Visibility OK 1008 No Significant change. Runway 30: Clear and dry, 1-10% contamination with <1mm, friction coefficient 0.70. UUOO 231300Z 28005MPS CAVOK 25/07 Q1008 R30/010070 NOSIG RMK QFE743
VFR 25°C / 7°C 300º 8kt >10km - Clouds and Visibility OK 1008 No Significant change. Runway 30: Clear and dry, 1-10% contamination with <1mm, friction coefficient 0.70. UUOO 231230Z 30004MPS CAVOK 25/07 Q1008 R30/010070 NOSIG RMK QFE743
VFR 25°C / 7°C 320º 10kt >10km - Clouds and Visibility OK 1009 No Significant change. Runway 30: Clear and dry, 1-10% contamination with <1mm, friction coefficient 0.70. UUOO 231200Z 32005MPS CAVOK 25/07 Q1009 R30/010070 NOSIG RMK QFE743

VFR

14°C / 11°C

[Plus]
Vent 250º 4kt
Visibilité >10km
Météo -
Nuages Clouds and Visibility OK
Pression 1010
Changement No Significant change. Runway 30: Clear and dry, 1-10% contamination with <1mm, friction coefficient 0.70.
Brut UUOO 232330Z 25002MPS CAVOK 14/11 Q1010 R30/010070 NOSIG RMK QFE744

VFR

14°C / 11°C

[Plus]
Vent 280º 6kt
Visibilité >10km
Météo -
Nuages Clouds and Visibility OK
Pression 1010
Changement No Significant change. Runway 30: Clear and dry, 1-10% contamination with <1mm, friction coefficient 0.70.
Brut UUOO 232300Z 28003MPS CAVOK 14/11 Q1010 R30/010070 NOSIG RMK QFE744

VFR

14°C / 11°C

[Plus]
Vent 280º 6kt
Visibilité >10km
Météo -
Nuages Clouds and Visibility OK
Pression 1010
Changement No Significant change. Runway 30: Clear and dry, 1-10% contamination with <1mm, friction coefficient 0.70.
Brut UUOO 232230Z 28003MPS CAVOK 14/11 Q1010 R30/010070 NOSIG RMK QFE744

VFR

16°C / 11°C

[Plus]
Vent 270º 4kt
Visibilité >10km
Météo -
Nuages Clouds and Visibility OK
Pression 1010
Changement No Significant change. Runway 30: Clear and dry, 1-10% contamination with <1mm, friction coefficient 0.70.
Brut UUOO 232200Z 27002MPS CAVOK 16/11 Q1010 R30/010070 NOSIG RMK QFE744

VFR

15°C / 11°C

[Plus]
Vent 280º 4kt
Visibilité >10km
Météo -
Nuages Clouds and Visibility OK
Pression 1010
Changement No Significant change. Runway 30: Clear and dry, 1-10% contamination with <1mm, friction coefficient 0.70.
Brut UUOO 232130Z 28002MPS CAVOK 15/11 Q1010 R30/010070 NOSIG RMK QFE744

VFR

14°C / 11°C

[Plus]
Vent 270º 4kt
Visibilité >10km
Météo -
Nuages Clouds and Visibility OK
Pression 1010
Changement No Significant change. Runway 30: Clear and dry, 1-10% contamination with <1mm, friction coefficient 0.70.
Brut UUOO 232100Z 27002MPS CAVOK 14/11 Q1010 R30/010070 NOSIG RMK QFE744

VFR

16°C / 10°C

[Plus]
Vent 260º 4kt
Visibilité >10km
Météo -
Nuages Clouds and Visibility OK
Pression 1010
Changement No Significant change. Runway 30: Clear and dry, 1-10% contamination with <1mm, friction coefficient 0.70.
Brut UUOO 232030Z 26002MPS CAVOK 16/10 Q1010 R30/010070 NOSIG RMK QFE744

VFR

17°C / 10°C

[Plus]
Vent 300º 6kt
Visibilité >10km
Météo -
Nuages Clouds and Visibility OK
Pression 1010
Changement No Significant change. Runway 30: Clear and dry, 1-10% contamination with <1mm, friction coefficient 0.70.
Brut UUOO 232000Z 30003MPS CAVOK 17/10 Q1010 R30/010070 NOSIG RMK QFE744

VFR

18°C / 10°C

[Plus]
Vent 280º 6kt
Visibilité >10km
Météo -
Nuages Clouds and Visibility OK
Pression 1010
Changement No Significant change. Runway 30: Clear and dry, 1-10% contamination with <1mm, friction coefficient 0.70.
Brut UUOO 231930Z 28003MPS CAVOK 18/10 Q1010 R30/010070 NOSIG RMK QFE744

VFR

19°C / 10°C

[Plus]
Vent 280º 4kt
Visibilité >10km
Météo -
Nuages Clouds and Visibility OK
Pression 1009
Changement No Significant change. Runway 30: Clear and dry, 1-10% contamination with <1mm, friction coefficient 0.70.
Brut UUOO 231900Z 28002MPS CAVOK 19/10 Q1009 R30/010070 NOSIG RMK QFE743

VFR

19°C / 9°C

[Plus]
Vent 270º 4kt
Visibilité >10km
Météo -
Nuages Clouds and Visibility OK
Pression 1009
Changement No Significant change. Runway 30: Clear and dry, 1-10% contamination with <1mm, friction coefficient 0.70.
Brut UUOO 231830Z 27002MPS CAVOK 19/09 Q1009 R30/010070 NOSIG RMK QFE743

VFR

19°C / 10°C

[Plus]
Vent 280º 4kt
Visibilité >10km
Météo -
Nuages Clouds and Visibility OK
Pression 1009
Changement No Significant change. Runway 30: Clear and dry, 1-10% contamination with <1mm, friction coefficient 0.70.
Brut UUOO 231800Z 28002MPS CAVOK 19/10 Q1009 R30/010070 NOSIG RMK QFE743

VFR

20°C / 9°C

[Plus]
Vent 260º 4kt
Visibilité >10km
Météo -
Nuages Clouds and Visibility OK
Pression 1009
Changement No Significant change. Runway 30: Clear and dry, 1-10% contamination with <1mm, friction coefficient 0.70.
Brut UUOO 231730Z 26002MPS CAVOK 20/09 Q1009 R30/010070 NOSIG RMK QFE743

VFR

22°C / 9°C

[Plus]
Vent 300º 6kt
Visibilité >10km
Météo -
Nuages Clouds and Visibility OK
Pression 1009
Changement No Significant change. Runway 30: Clear and dry, 1-10% contamination with <1mm, friction coefficient 0.70.
Brut UUOO 231700Z 30003MPS CAVOK 22/09 Q1009 R30/010070 NOSIG RMK QFE743

VFR

23°C / 8°C

[Plus]
Vent 280º 8kt
Visibilité >10km
Météo -
Nuages Clouds and Visibility OK
Pression 1009
Changement No Significant change. Runway 30: Clear and dry, 1-10% contamination with <1mm, friction coefficient 0.70.
Brut UUOO 231630Z 28004MPS CAVOK 23/08 Q1009 R30/010070 NOSIG RMK QFE743

VFR

24°C / 8°C

[Plus]
Vent 310º 8kt
Visibilité >10km
Météo -
Nuages Clouds and Visibility OK
Pression 1008
Changement No Significant change. Runway 30: Clear and dry, 1-10% contamination with <1mm, friction coefficient 0.70.
Brut UUOO 231600Z 31004MPS CAVOK 24/08 Q1008 R30/010070 NOSIG RMK QFE743

VFR

24°C / 8°C

[Plus]
Vent 300º 10kt
Visibilité >10km
Météo -
Nuages Clouds and Visibility OK
Pression 1008
Changement No Significant change. Runway 30: Clear and dry, 1-10% contamination with <1mm, friction coefficient 0.70.
Brut UUOO 231530Z 30005MPS CAVOK 24/08 Q1008 R30/010070 NOSIG RMK QFE743

VFR

24°C / 7°C

[Plus]
Vent 310º 10kt
Visibilité >10km
Météo -
Nuages Clouds and Visibility OK
Pression 1008
Changement No Significant change. Runway 30: Clear and dry, 1-10% contamination with <1mm, friction coefficient 0.70.
Brut UUOO 231500Z 31005MPS CAVOK 24/07 Q1008 R30/010070 NOSIG RMK QFE743

VFR

24°C / 7°C

[Plus]
Vent 310º 12kt
Visibilité >10km
Météo -
Nuages Clouds and Visibility OK
Pression 1008
Changement No Significant change. Runway 30: Clear and dry, 1-10% contamination with <1mm, friction coefficient 0.70.
Brut UUOO 231430Z 31006MPS CAVOK 24/07 Q1008 R30/010070 NOSIG RMK QFE743

VFR

25°C / 7°C

[Plus]
Vent 300º 12kt
Visibilité >10km
Météo -
Nuages Clouds and Visibility OK
Pression 1008
Changement No Significant change. Runway 30: Clear and dry, 1-10% contamination with <1mm, friction coefficient 0.70.
Brut UUOO 231400Z 30006MPS CAVOK 25/07 Q1008 R30/010070 NOSIG RMK QFE743

VFR

25°C / 7°C

[Plus]
Vent 300º variable 260º to 340º 10kt
Visibilité >10km
Météo -
Nuages Clouds and Visibility OK
Pression 1008
Changement No Significant change. Runway 30: Clear and dry, 1-10% contamination with <1mm, friction coefficient 0.70.
Brut UUOO 231330Z 30005MPS 260V340 CAVOK 25/07 Q1008 R30/010070 NOSIG RMK QFE743

VFR

25°C / 7°C

[Plus]
Vent 280º 10kt
Visibilité >10km
Météo -
Nuages Clouds and Visibility OK
Pression 1008
Changement No Significant change. Runway 30: Clear and dry, 1-10% contamination with <1mm, friction coefficient 0.70.
Brut UUOO 231300Z 28005MPS CAVOK 25/07 Q1008 R30/010070 NOSIG RMK QFE743

VFR

25°C / 7°C

[Plus]
Vent 300º 8kt
Visibilité >10km
Météo -
Nuages Clouds and Visibility OK
Pression 1008
Changement No Significant change. Runway 30: Clear and dry, 1-10% contamination with <1mm, friction coefficient 0.70.
Brut UUOO 231230Z 30004MPS CAVOK 25/07 Q1008 R30/010070 NOSIG RMK QFE743

VFR

25°C / 7°C

[Plus]
Vent 320º 10kt
Visibilité >10km
Météo -
Nuages Clouds and Visibility OK
Pression 1009
Changement No Significant change. Runway 30: Clear and dry, 1-10% contamination with <1mm, friction coefficient 0.70.
Brut UUOO 231200Z 32005MPS CAVOK 25/07 Q1009 R30/010070 NOSIG RMK QFE743

TAF pour 51.82°N 39.23°E (UUOO)

From till


From till Wind 290º 6kt. Visibility 10km or more. Nil Significant Cloud.

Brut: TAF UUOO 232300Z 2400/2409 29003MPS CAVOK

Les images satellites et les pluies actuelles pour 51.82°N 39.23°E

Le marqueur de lieu est placé sur 51.82°N 39.23°E. [Plus]

L'image satellite en temps réel combine la lumière visible pendant la journée et le rayonnement infrarouge pendant la nuit. La nuit, l'image n'est pas sombre car le rayonnement infrarouge permet de détecter les différences de température. Malheureusement, les nuages bas et le brouillard sont difficiles à distinguer des températures au sol et peuvent donc être presque invisibles pendant la nuit. Les images des satellites Météosat pour l'Europe sont mises à jour en temps réel toutes les 5 minutes. Les images GOES-16/GOES-17 (Amérique du Nord et du Sud) et Himawari (Asie) sont mises à jour toutes les 10 minutes.

Copyright 2021 EUMETSAT / meteoblue. / Copyright 2021 meteoblue

Radar et prévision de précipitation à courte échéance pour 51.82°N 39.23°E

Bruine
Légère
Modéré
Fort
Très fort
Grêle

Le marqueur de position est placé sur 51.82°N 39.23°E. Cette animation montre le Radar des précipitations pour les dernières heures, ainsi qu'une 1h prévision. La bruine ou les légères chutes de neiges peuvent ne pas être détectées par le radar. L'intensité des précipitations est visible avec un code couleur allant du bleu clair au violet foncé.